Location: Lincolnton
(35.4660°N, 81.2500°W)
Time: 12:24:58
(UTC-04:00)

HST - Visible Passes

Search period start: 16 April 2014 00:00
Search period end: 26 April 2014 00:00
Orbit: 549 x 553 km, 28.5° (Epoch: 15 April)

Date Brightness Start Highest point End Pass type
(mag) Time Alt. Az. Time Alt. Az. Time Alt. Az.
16 Apr 2.1 21:26:34 10° SW 21:29:48 24° S 21:29:48 24° S visible
17 Apr 1.9 21:19:54 10° SW 21:23:28 27° S 21:23:59 27° SSE visible
18 Apr 1.8 21:13:17 10° SW 21:16:57 30° S 21:18:05 26° SE visible
19 Apr 1.8 21:06:43 10° WSW 21:10:26 31° S 21:12:06 23° SE visible
20 Apr 1.8 21:00:11 10° WSW 21:03:54 31° S 21:06:03 20° SE visible
20 Apr 3.7 22:41:39 10° WSW 22:41:39 10° WSW 22:41:39 10° WSW visible
21 Apr 1.9 20:53:41 10° WSW 20:57:23 30° S 20:59:58 16° SE visible
21 Apr 3.6 22:35:22 10° WSW 22:35:34 11° WSW 22:35:34 11° WSW visible
22 Apr 2.0 20:47:12 10° WSW 20:50:50 29° S 20:53:51 13° SE visible
22 Apr 3.5 22:29:13 10° WSW 22:29:27 11° SW 22:29:27 11° SW visible
23 Apr 2.2 20:40:46 10° WSW 20:44:17 26° S 20:47:44 10° SE visible
23 Apr 3.5 22:23:19 10° SW 22:23:19 10° SW 22:23:19 10° SW visible
24 Apr 2.4 20:34:22 10° WSW 20:37:44 23° SSW 20:41:05 10° SE visible
25 Apr 2.6 20:28:02 10° WSW 20:31:09 20° SSW 20:34:16 10° SSE visible
